Time,TemperatureF,DewpointF,PressureIn,WindDirection,WindDirectionDegrees,WindSpeedMPH,WindSpeedGustMPH,Humidity,HourlyPrecipIn,Conditions,Clouds,dailyrainin,SoftwareType,DateUTC
2013-10-17 00:02:00,45.3,45.1,29.91,West,270,0.0,2.0,99,0.00,,,0.01,meteohub,2013-10-17 05:02:00,
2013-10-17 00:07:00,45.3,45.1,29.91,West,270,0.0,2.0,99,0.00,,,0.00,meteohub,2013-10-17 05:07:00,
2013-10-17 00:12:00,45.1,45.0,29.91,North,0,0.0,0.0,99,0.00,,,0.00,meteohub,2013-10-17 05:12:00,
2013-10-17 00:17:00,45.0,44.8,29.90,North,0,0.0,0.0,99,0.00,,,0.00,meteohub,2013-10-17 05:17:00,
2013-10-17 00:22:00,44.8,44.6,29.90,NW,315,0.0,0.0,99,0.00,,,0.00,meteohub,2013-10-17 05:22:00,
2013-10-17 00:27:00,44.6,44.4,29.90,West,270,0.0,0.0,99,0.00,,,0.00,meteohub,2013-10-17 05:27:00,
2013-10-17 00:32:00,44.6,44.4,29.90,West,270,0.0,0.0,99,0.00,,,0.00,meteohub,2013-10-17 05:32:00,
2013-10-17 00:37:00,44.6,44.4,29.90,West,270,0.0,0.0,99,0.00,,,0.00,meteohub,2013-10-17 05:37:00,
2013-10-17 00:42:00,44.6,44.4,29.90,West,270,0.0,0.0,99,0.00,,,0.00,meteohub,2013-10-17 05:42:00,
2013-10-17 00:47:00,44.6,44.4,29.90,West,270,0.0,0.0,99,0.00,,,0.00,meteohub,2013-10-17 05:47:00,
2013-10-17 00:52:00,44.6,44.4,29.89,West,270,0.0,0.0,99,0.00,,,0.00,meteohub,2013-10-17 05:52:00,
2013-10-17 00:57:00,44.8,44.6,29.89,West,270,0.0,0.0,99,0.00,,,0.00,meteohub,2013-10-17 05:57:00,
2013-10-17 01:02:00,44.8,44.6,29.90,West,270,0.0,0.0,99,0.00,,,0.00,meteohub,2013-10-17 06:02:00,
2013-10-17 01:07:00,44.8,44.6,29.89,West,270,0.0,0.0,99,0.00,,,0.00,meteohub,2013-10-17 06:07:00,
2013-10-17 01:12:00,44.8,44.6,29.90,SW,225,0.0,0.0,99,0.00,,,0.00,meteohub,2013-10-17 06:12:00,
2013-10-17 01:17:00,44.8,44.6,29.90,SW,225,0.0,0.0,99,0.00,,,0.00,meteohub,2013-10-17 06:17:00,
2013-10-17 01:22:00,44.8,44.6,29.90,SW,225,0.0,0.0,99,0.00,,,0.00,meteohub,2013-10-17 06:22:00,
2013-10-17 01:27:00,44.8,44.6,29.90,SW,225,0.0,0.0,99,0.00,,,0.00,meteohub,2013-10-17 06:27:00,
2013-10-17 01:32:00,44.8,44.6,29.89,SW,225,0.0,0.0,99,0.00,,,0.00,meteohub,2013-10-17 06:32:00,
2013-10-17 01:37:00,44.6,44.4,29.89,WSW,248,0.0,0.0,99,0.00,,,0.00,meteohub,2013-10-17 06:37:00,
2013-10-17 01:42:00,44.6,44.4,29.89,West,270,0.0,0.0,99,0.00,,,0.00,meteohub,2013-10-17 06:42:00,
2013-10-17 01:47:00,44.6,44.4,29.89,West,270,0.0,0.0,99,0.00,,,0.00,meteohub,2013-10-17 06:47:00,
2013-10-17 01:52:00,44.8,44.6,29.89,West,270,0.0,0.0,99,0.00,,,0.00,meteohub,2013-10-17 06:52:00,
2013-10-17 01:57:00,44.8,44.6,29.90,SW,225,0.0,0.0,99,0.00,,,0.00,meteohub,2013-10-17 06:57:00,
2013-10-17 02:02:00,44.8,44.6,29.90,SW,225,0.0,1.0,99,0.00,,,0.00,meteohub,2013-10-17 07:02:00,
2013-10-17 02:07:00,44.8,44.6,29.89,SW,225,0.0,1.0,99,0.00,,,0.00,meteohub,2013-10-17 07:07:00,
2013-10-17 02:12:00,44.8,44.6,29.89,West,270,2.0,2.0,99,0.00,,,0.00,meteohub,2013-10-17 07:12:00,
2013-10-17 02:17:00,45.0,44.8,29.89,West,270,2.0,2.0,99,0.00,,,0.00,meteohub,2013-10-17 07:17:00,
2013-10-17 02:22:00,44.8,44.6,29.89,SW,225,2.0,3.0,99,0.00,,,0.00,meteohub,2013-10-17 07:22:00,
2013-10-17 02:27:00,45.0,44.8,29.89,SW,225,2.0,3.0,99,0.00,,,0.00,meteohub,2013-10-17 07:27:00,
2013-10-17 02:32:00,45.0,44.8,29.89,WSW,248,2.0,2.0,99,0.00,,,0.00,meteohub,2013-10-17 07:32:00,
2013-10-17 02:37:00,45.0,44.8,29.89,WSW,248,2.0,3.0,99,0.00,,,0.00,meteohub,2013-10-17 07:37:00,
2013-10-17 02:42:00,45.1,45.0,29.89,SW,225,2.0,3.0,99,0.00,,,0.00,meteohub,2013-10-17 07:42:00,
2013-10-17 02:47:00,45.1,45.0,29.89,West,270,2.0,3.0,99,0.00,,,0.00,meteohub,2013-10-17 07:47:00,
2013-10-17 02:52:00,45.1,45.0,29.89,SW,225,2.0,3.0,99,0.00,,,0.00,meteohub,2013-10-17 07:52:00,
2013-10-17 02:57:00,45.1,45.0,29.88,SW,225,0.0,3.0,99,0.00,,,0.00,meteohub,2013-10-17 07:57:00,
2013-10-17 03:02:00,45.1,45.0,29.88,SW,225,2.0,3.0,99,0.00,,,0.00,meteohub,2013-10-17 08:02:00,
2013-10-17 03:07:00,45.1,45.0,29.88,SW,225,2.0,2.0,99,0.00,,,0.00,meteohub,2013-10-17 08:07:00,
2013-10-17 03:12:00,45.1,45.0,29.88,West,270,2.0,2.0,99,0.00,,,0.00,meteohub,2013-10-17 08:12:00,
2013-10-17 03:13:00,45.1,45.0,29.88,West,270,2.0,2.0,99,0.00,,,0.00,meteohub,2013-10-17 08:13:00,
2013-10-17 03:18:00,45.1,45.0,29.87,West,270,2.0,2.0,99,0.00,,,0.00,meteohub,2013-10-17 08:18:00,
2013-10-17 03:23:00,45.3,45.1,29.87,NW,315,2.0,3.0,99,0.00,,,0.00,meteohub,2013-10-17 08:23:00,
2013-10-17 03:28:00,45.3,45.1,29.87,West,270,1.0,3.0,99,0.00,,,0.00,meteohub,2013-10-17 08:28:00,
2013-10-17 03:33:00,45.1,45.0,29.87,North,0,1.0,3.0,99,0.00,,,0.00,meteohub,2013-10-17 08:33:00,
2013-10-17 03:38:00,45.0,44.8,29.87,NW,315,0.0,2.0,99,0.00,,,0.00,meteohub,2013-10-17 08:38:00,
2013-10-17 03:43:00,45.0,44.8,29.86,NW,315,1.0,2.0,99,0.00,,,0.00,meteohub,2013-10-17 08:43:00,
2013-10-17 03:48:00,45.0,44.8,29.86,NW,315,0.0,2.0,99,0.00,,,0.00,meteohub,2013-10-17 08:48:00,
2013-10-17 03:53:00,44.8,44.6,29.87,NW,315,0.0,1.0,99,0.00,,,0.00,meteohub,2013-10-17 08:53:00,
2013-10-17 03:58:00,44.8,44.6,29.87,NW,315,0.0,1.0,99,0.00,,,0.00,meteohub,2013-10-17 08:58:00,
2013-10-17 04:04:00,45.0,44.8,29.87,West,270,0.0,0.0,99,0.00,,,0.00,meteohub,2013-10-17 09:04:00,
2013-10-17 04:09:00,45.0,44.8,29.87,WNW,293,0.0,0.0,99,0.00,,,0.00,meteohub,2013-10-17 09:09:00,
2013-10-17 04:14:00,45.0,44.8,29.87,West,270,0.0,0.0,99,0.00,,,0.00,meteohub,2013-10-17 09:14:00,
2013-10-17 04:19:00,45.0,44.8,29.87,North,0,0.0,0.0,99,0.00,,,0.00,meteohub,2013-10-17 09:19:00,
2013-10-17 04:24:00,45.0,44.8,29.87,NW,315,0.0,0.0,99,0.00,,,0.00,meteohub,2013-10-17 09:24:00,
2013-10-17 04:29:00,45.0,44.8,29.87,NW,315,0.0,0.0,99,0.00,,,0.00,meteohub,2013-10-17 09:29:00,
2013-10-17 04:34:00,45.0,44.8,29.87,North,0,0.0,0.0,99,0.00,,,0.00,meteohub,2013-10-17 09:34:00,
2013-10-17 04:39:00,44.8,44.6,29.87,North,0,0.0,0.0,99,0.00,,,0.00,meteohub,2013-10-17 09:39:00,
2013-10-17 04:44:00,44.8,44.6,29.88,North,0,0.0,0.0,99,0.00,,,0.00,meteohub,2013-10-17 09:44:00,
2013-10-17 04:49:00,44.8,44.6,29.88,North,0,0.0,0.0,99,0.00,,,0.00,meteohub,2013-10-17 09:49:00,
2013-10-17 04:54:00,45.0,44.8,29.88,SW,225,0.0,0.0,99,0.00,,,0.00,meteohub,2013-10-17 09:54:00,
2013-10-17 04:59:00,45.0,44.8,29.87,SW,225,0.0,0.0,99,0.00,,,0.00,meteohub,2013-10-17 09:59:00,
2013-10-17 05:04:00,45.0,44.8,29.87,SW,225,0.0,0.0,99,0.00,,,0.00,meteohub,2013-10-17 10:04:00,
2013-10-17 05:09:00,45.0,44.8,29.87,SW,225,0.0,0.0,99,0.00,,,0.00,meteohub,2013-10-17 10:09:00,
2013-10-17 05:15:00,45.0,44.8,29.87,SW,225,0.0,0.0,99,0.00,,,0.00,meteohub,2013-10-17 10:15:00,
2013-10-17 05:20:00,45.0,44.8,29.87,SW,225,0.0,0.0,99,0.00,,,0.00,meteohub,2013-10-17 10:20:00,
2013-10-17 05:25:00,45.0,44.8,29.87,NW,315,0.0,0.0,99,0.00,,,0.00,meteohub,2013-10-17 10:25:00,
2013-10-17 05:30:00,45.0,44.8,29.86,North,0,0.0,0.0,99,0.01,,,0.01,meteohub,2013-10-17 10:30:00,
2013-10-17 05:35:00,44.8,44.6,29.87,North,0,2.0,0.0,99,0.01,,,0.02,meteohub,2013-10-17 10:35:00,
2013-10-17 05:40:00,44.4,44.2,29.86,NW,315,3.0,4.0,99,0.02,,,0.02,meteohub,2013-10-17 10:40:00,
2013-10-17 05:45:00,44.4,44.2,29.86,North,0,3.0,6.0,99,0.02,,,0.02,meteohub,2013-10-17 10:45:00,
2013-10-17 05:50:00,44.2,44.1,29.86,NE,45,3.0,6.0,99,0.02,,,0.02,meteohub,2013-10-17 10:50:00,
2013-10-17 05:55:00,44.2,44.1,29.86,North,0,3.0,6.0,99,0.02,,,0.02,meteohub,2013-10-17 10:55:00,
2013-10-17 06:00:00,44.2,44.1,29.86,North,0,4.0,4.0,99,0.02,,,0.02,meteohub,2013-10-17 11:00:00,
2013-10-17 06:05:00,44.2,44.1,29.86,North,0,4.0,4.0,99,0.02,,,0.02,meteohub,2013-10-17 11:05:00,
2013-10-17 06:10:00,44.1,43.9,29.86,NE,45,4.0,4.0,99,0.02,,,0.02,meteohub,2013-10-17 11:10:00,
2013-10-17 06:15:00,44.1,43.9,29.86,North,0,3.0,4.0,99,0.02,,,0.02,meteohub,2013-10-17 11:15:00,
2013-10-17 06:21:00,44.1,43.9,29.85,North,0,3.0,4.0,99,0.02,,,0.02,meteohub,2013-10-17 11:21:00,
2013-10-17 06:26:00,44.1,43.9,29.85,North,0,2.0,4.0,99,0.01,,,0.02,meteohub,2013-10-17 11:26:00,
2013-10-17 06:31:00,44.1,43.9,29.85,North,0,2.0,4.0,99,0.01,,,0.02,meteohub,2013-10-17 11:31:00,
2013-10-17 06:36:00,44.1,43.9,29.85,North,0,0.0,4.0,99,0.00,,,0.02,meteohub,2013-10-17 11:36:00,
2013-10-17 06:41:00,44.1,43.9,29.85,North,0,2.0,4.0,99,0.00,,,0.02,meteohub,2013-10-17 11:41:00,
2013-10-17 06:46:00,44.1,43.9,29.85,North,0,1.0,3.0,99,0.00,,,0.02,meteohub,2013-10-17 11:46:00,
2013-10-17 06:51:00,44.1,43.9,29.85,North,0,2.0,2.0,99,0.00,,,0.02,meteohub,2013-10-17 11:51:00,
2013-10-17 06:56:00,44.1,43.9,29.85,North,0,2.0,3.0,99,0.00,,,0.02,meteohub,2013-10-17 11:56:00,
2013-10-17 07:01:00,44.1,43.9,29.85,North,0,2.0,3.0,99,0.00,,,0.02,meteohub,2013-10-17 12:01:00,
2013-10-17 07:06:00,44.1,43.9,29.85,North,0,2.0,3.0,99,0.00,,,0.02,meteohub,2013-10-17 12:06:00,
2013-10-17 07:11:00,44.2,44.1,29.85,North,0,1.0,3.0,99,0.00,,,0.02,meteohub,2013-10-17 12:11:00,
2013-10-17 07:16:00,44.1,43.9,29.85,North,0,2.0,2.0,99,0.00,,,0.02,meteohub,2013-10-17 12:16:00,
2013-10-17 07:21:00,44.2,44.1,29.85,North,0,3.0,3.0,99,0.00,,,0.02,meteohub,2013-10-17 12:21:00,
2013-10-17 07:27:00,44.2,44.1,29.85,North,0,3.0,3.0,99,0.00,,,0.02,meteohub,2013-10-17 12:27:00,
2013-10-17 07:32:00,44.2,44.1,29.85,NNW,338,2.0,3.0,99,0.00,,,0.02,meteohub,2013-10-17 12:32:00,
2013-10-17 07:37:00,44.2,44.1,29.86,North,0,2.0,3.0,99,0.00,,,0.02,meteohub,2013-10-17 12:37:00,
2013-10-17 07:42:00,44.2,44.1,29.85,North,0,5.0,5.0,99,0.00,,,0.02,meteohub,2013-10-17 12:42:00,
2013-10-17 07:47:00,44.1,43.9,29.86,North,0,4.0,6.0,99,0.00,,,0.02,meteohub,2013-10-17 12:47:00,
2013-10-17 07:52:00,43.9,43.7,29.85,North,0,4.0,6.0,99,0.01,,,0.04,meteohub,2013-10-17 12:52:00,
2013-10-17 07:57:00,43.9,43.7,29.86,NW,315,0.0,6.0,99,0.01,,,0.04,meteohub,2013-10-17 12:57:00,
2013-10-17 08:02:00,43.9,43.7,29.86,NW,315,2.0,6.0,99,0.01,,,0.04,meteohub,2013-10-17 13:02:00,
2013-10-17 08:07:00,43.9,43.7,29.86,NW,315,2.0,4.0,99,0.01,,,0.04,meteohub,2013-10-17 13:07:00,
2013-10-17 08:12:00,43.5,43.3,29.86,North,0,5.0,7.0,99,0.02,,,0.05,meteohub,2013-10-17 13:12:00,
2013-10-17 08:17:00,43.3,43.2,29.86,SW,225,4.0,7.0,99,0.02,,,0.05,meteohub,2013-10-17 13:17:00,
2013-10-17 08:22:00,43.0,42.8,29.86,West,270,4.0,7.0,99,0.02,,,0.05,meteohub,2013-10-17 13:22:00,
2013-10-17 08:27:00,42.4,42.3,29.86,South,180,4.0,8.0,99,0.02,,,0.05,meteohub,2013-10-17 13:27:00,
2013-10-17 08:32:00,42.4,42.3,29.86,North,0,4.0,8.0,99,0.04,,,0.06,meteohub,2013-10-17 13:32:00,
2013-10-17 08:37:00,42.4,42.3,29.86,North,0,6.0,8.0,99,0.04,,,0.06,meteohub,2013-10-17 13:37:00,
2013-10-17 08:42:00,42.3,42.1,29.86,NNW,338,6.0,8.0,99,0.04,,,0.06,meteohub,2013-10-17 13:42:00,
2013-10-17 08:47:00,42.3,42.1,29.86,North,0,8.0,8.0,99,0.02,,,0.06,meteohub,2013-10-17 13:47:00,
2013-10-17 08:52:00,42.3,42.1,29.86,East,90,4.0,8.0,99,0.02,,,0.06,meteohub,2013-10-17 13:52:00,
2013-10-17 08:57:00,42.3,42.1,29.86,West,270,3.0,8.0,99,0.02,,,0.06,meteohub,2013-10-17 13:57:00,
2013-10-17 09:02:00,42.3,42.1,29.86,North,0,3.0,8.0,99,0.02,,,0.06,meteohub,2013-10-17 14:02:00,
2013-10-17 09:07:00,42.3,42.1,29.86,North,0,3.0,4.0,99,0.02,,,0.06,meteohub,2013-10-17 14:07:00,
2013-10-17 09:12:00,41.9,41.7,29.85,North,0,3.0,6.0,99,0.01,,,0.06,meteohub,2013-10-17 14:12:00,
2013-10-17 09:17:00,41.9,41.7,29.86,NW,315,2.0,6.0,99,0.02,,,0.07,meteohub,2013-10-17 14:17:00,
2013-10-17 09:22:00,41.9,41.7,29.86,NNE,23,4.0,6.0,99,0.02,,,0.07,meteohub,2013-10-17 14:22:00,
2013-10-17 09:27:00,42.3,42.1,29.86,North,0,6.0,6.0,99,0.02,,,0.07,meteohub,2013-10-17 14:27:00,
2013-10-17 09:32:00,42.1,41.9,29.85,North,0,4.0,6.0,99,0.01,,,0.07,meteohub,2013-10-17 14:32:00,
2013-10-17 09:37:00,42.3,41.7,29.85,WNW,293,4.0,6.0,98,0.01,,,0.07,meteohub,2013-10-17 14:37:00,
2013-10-17 09:42:00,42.3,41.5,29.85,NNW,338,4.0,6.0,97,0.01,,,0.07,meteohub,2013-10-17 14:42:00,
2013-10-17 09:47:00,42.3,41.5,29.85,North,0,2.0,5.0,97,0.02,,,0.08,meteohub,2013-10-17 14:47:00,
2013-10-17 09:52:00,42.4,41.7,29.86,North,0,3.0,4.0,97,0.02,,,0.08,meteohub,2013-10-17 14:52:00,
2013-10-17 09:57:00,42.4,41.4,29.86,North,0,2.0,4.0,96,0.02,,,0.08,meteohub,2013-10-17 14:57:00,
2013-10-17 10:02:00,42.6,41.5,29.85,North,0,1.0,4.0,96,0.02,,,0.08,meteohub,2013-10-17 15:02:00,
2013-10-17 10:07:00,42.8,41.7,29.85,NE,45,2.0,4.0,96,0.02,,,0.08,meteohub,2013-10-17 15:07:00,
2013-10-17 10:12:00,43.0,41.9,29.86,North,0,2.0,4.0,96,0.02,,,0.08,meteohub,2013-10-17 15:12:00,
2013-10-17 10:17:00,43.2,42.1,29.86,SW,225,2.0,2.0,96,0.01,,,0.08,meteohub,2013-10-17 15:17:00,
2013-10-17 10:22:00,43.3,42.1,29.86,West,270,2.0,3.0,95,0.01,,,0.08,meteohub,2013-10-17 15:22:00,
2013-10-17 10:27:00,43.3,41.7,29.86,North,0,4.0,4.0,94,0.01,,,0.08,meteohub,2013-10-17 15:27:00,
2013-10-17 10:32:00,43.3,41.5,29.86,North,0,2.0,4.0,93,0.01,,,0.08,meteohub,2013-10-17 15:32:00,
2013-10-17 10:37:00,43.3,41.2,29.86,North,0,3.0,4.0,92,0.01,,,0.08,meteohub,2013-10-17 15:37:00,
2013-10-17 10:42:00,43.5,41.4,29.86,North,0,4.0,4.0,92,0.00,,,0.08,meteohub,2013-10-17 15:42:00,
2013-10-17 10:47:00,43.7,41.5,29.86,North,0,3.0,4.0,92,0.00,,,0.08,meteohub,2013-10-17 15:47:00,
2013-10-17 10:52:00,43.7,41.2,29.86,NW,315,2.0,4.0,91,0.00,,,0.08,meteohub,2013-10-17 15:52:00,
2013-10-17 10:57:00,43.9,41.7,29.85,West,270,3.0,5.0,92,0.00,,,0.08,meteohub,2013-10-17 15:57:00,
2013-10-17 11:02:00,44.1,41.9,29.86,West,270,4.0,5.0,92,0.00,,,0.08,meteohub,2013-10-17 16:02:00,
2013-10-17 11:07:00,44.1,41.9,29.85,West,270,4.0,5.0,92,0.00,,,0.08,meteohub,2013-10-17 16:07:00,
2013-10-17 11:12:00,44.4,41.9,29.85,West,270,2.0,4.0,91,0.00,,,0.08,meteohub,2013-10-17 16:12:00,
2013-10-17 11:17:00,44.8,42.1,29.85,West,270,4.0,4.0,90,0.00,,,0.08,meteohub,2013-10-17 16:17:00,
2013-10-17 11:22:00,45.0,41.5,29.85,SW,225,6.0,6.0,88,0.00,,,0.08,meteohub,2013-10-17 16:22:00,
2013-10-17 11:27:00,45.3,42.8,29.85,SW,225,5.0,6.0,91,0.00,,,0.08,meteohub,2013-10-17 16:27:00,
2013-10-17 11:32:00,45.5,43.0,29.85,WSW,248,4.0,6.0,91,0.00,,,0.08,meteohub,2013-10-17 16:32:00,
2013-10-17 11:37:00,45.5,42.4,29.85,SW,225,7.0,7.0,89,0.00,,,0.08,meteohub,2013-10-17 16:37:00,
2013-10-17 11:42:00,45.7,42.6,29.85,West,270,6.0,7.0,89,0.00,,,0.08,meteohub,2013-10-17 16:42:00,
2013-10-17 11:47:00,45.7,41.7,29.85,SW,225,4.0,8.0,86,0.00,,,0.08,meteohub,2013-10-17 16:47:00,
2013-10-17 11:52:00,45.9,42.3,29.84,SW,225,5.0,8.0,87,0.00,,,0.08,meteohub,2013-10-17 16:52:00,
2013-10-17 11:57:00,45.9,41.9,29.85,SW,225,6.0,8.0,86,0.00,,,0.08,meteohub,2013-10-17 16:57:00,
2013-10-17 12:02:00,46.2,42.8,29.84,West,270,5.0,7.0,88,0.00,,,0.08,meteohub,2013-10-17 17:02:00,
2013-10-17 12:07:00,46.2,42.8,29.84,West,270,5.0,7.0,88,0.00,,,0.08,meteohub,2013-10-17 17:07:00,
2013-10-17 12:12:00,46.9,43.3,29.84,SW,225,7.0,7.0,87,0.00,,,0.08,meteohub,2013-10-17 17:12:00,
2013-10-17 12:17:00,47.7,43.7,29.84,South,180,4.0,8.0,86,0.00,,,0.08,meteohub,2013-10-17 17:17:00,
2013-10-17 12:22:00,47.8,43.2,29.84,NW,315,7.0,8.0,84,0.00,,,0.08,meteohub,2013-10-17 17:22:00,
2013-10-17 12:27:00,48.4,43.2,29.84,SW,225,10.0,10.0,82,0.00,,,0.08,meteohub,2013-10-17 17:27:00,
2013-10-17 12:32:00,49.3,43.7,29.84,SW,225,8.0,11.0,81,0.00,,,0.08,meteohub,2013-10-17 17:32:00,
2013-10-17 12:37:00,49.5,42.8,29.83,West,270,8.0,11.0,78,0.00,,,0.08,meteohub,2013-10-17 17:37:00,
2013-10-17 12:42:00,49.6,42.4,29.83,West,270,11.0,11.0,76,0.00,,,0.08,meteohub,2013-10-17 17:42:00,
2013-10-17 12:47:00,49.8,42.3,29.83,West,270,9.0,11.0,75,0.00,,,0.08,meteohub,2013-10-17 17:47:00,
2013-10-17 12:52:00,50.2,43.0,29.83,West,270,10.0,11.0,76,0.00,,,0.08,meteohub,2013-10-17 17:52:00,
2013-10-17 12:57:00,50.0,42.8,29.83,SW,225,7.0,11.0,76,0.00,,,0.08,meteohub,2013-10-17 17:57:00,
2013-10-17 13:02:00,49.8,42.3,29.83,NW,315,8.0,11.0,75,0.00,,,0.08,meteohub,2013-10-17 18:02:00,
2013-10-17 13:07:00,49.8,42.3,29.82,NW,315,8.0,11.0,75,0.00,,,0.08,meteohub,2013-10-17 18:07:00,
2013-10-17 13:12:00,50.5,41.9,29.82,SW,225,8.0,10.0,72,0.00,,,0.08,meteohub,2013-10-17 18:12:00,
2013-10-17 13:17:00,49.8,41.9,29.82,West,270,5.0,8.0,74,0.00,,,0.08,meteohub,2013-10-17 18:17:00,
2013-10-17 13:22:00,50.2,41.5,29.81,South,180,5.0,8.0,72,0.00,,,0.08,meteohub,2013-10-17 18:22:00,
2013-10-17 13:27:00,50.2,41.2,29.81,SW,225,6.0,11.0,71,0.00,,,0.08,meteohub,2013-10-17 18:27:00,
2013-10-17 13:32:00,50.7,41.4,29.81,West,270,6.0,11.0,70,0.00,,,0.08,meteohub,2013-10-17 18:32:00,
2013-10-17 13:37:00,50.9,42.3,29.81,SW,225,7.0,11.0,72,0.00,,,0.08,meteohub,2013-10-17 18:37:00,
2013-10-17 13:42:00,51.6,42.4,29.81,West,270,10.0,11.0,71,0.00,,,0.08,meteohub,2013-10-17 18:42:00,
2013-10-17 13:47:00,52.0,42.8,29.81,West,270,8.0,12.0,71,0.00,,,0.08,meteohub,2013-10-17 18:47:00,
2013-10-17 13:52:00,52.3,41.7,29.81,West,270,8.0,12.0,67,0.00,,,0.08,meteohub,2013-10-17 18:52:00,
2013-10-17 13:57:00,52.5,42.3,29.81,SW,225,10.0,12.0,68,0.00,,,0.08,meteohub,2013-10-17 18:57:00,
2013-10-17 14:02:00,52.7,42.4,29.81,West,270,8.0,11.0,68,0.00,,,0.08,meteohub,2013-10-17 19:02:00,
2013-10-17 14:07:00,52.7,42.4,29.81,West,270,8.0,11.0,68,0.00,,,0.08,meteohub,2013-10-17 19:07:00,
2013-10-17 14:12:00,52.2,41.5,29.81,SW,225,5.0,10.0,67,0.00,,,0.08,meteohub,2013-10-17 19:12:00,
2013-10-17 14:17:00,52.5,41.2,29.81,SW,225,10.0,10.0,65,0.00,,,0.08,meteohub,2013-10-17 19:17:00,
2013-10-17 14:22:00,53.4,39.9,29.81,SW,225,13.0,15.0,60,0.00,,,0.08,meteohub,2013-10-17 19:22:00,
2013-10-17 14:27:00,53.2,41.4,29.81,West,270,9.0,15.0,64,0.00,,,0.08,meteohub,2013-10-17 19:27:00,
2013-10-17 14:31:00,53.2,41.4,29.81,West,270,9.0,15.0,64,0.00,,,0.08,meteohub,2013-10-17 19:31:00,
2013-10-17 14:36:00,52.7,40.5,29.81,West,270,10.0,13.0,63,0.00,,,0.08,meteohub,2013-10-17 19:36:00,
2013-10-17 14:41:00,52.0,39.7,29.81,West,270,5.0,12.0,63,0.00,,,0.08,meteohub,2013-10-17 19:41:00,
2013-10-17 14:46:00,51.6,39.0,29.81,SW,225,11.0,13.0,62,0.00,,,0.08,meteohub,2013-10-17 19:46:00,
2013-10-17 14:51:00,52.7,39.2,29.81,WNW,293,14.0,14.0,60,0.00,,,0.08,meteohub,2013-10-17 19:51:00,
2013-10-17 14:56:00,52.2,39.2,29.81,West,270,11.0,17.0,61,0.00,,,0.08,meteohub,2013-10-17 19:56:00,
2013-10-17 15:01:00,52.3,39.7,29.81,West,270,9.0,17.0,62,0.00,,,0.08,meteohub,2013-10-17 20:01:00,
2013-10-17 15:06:00,52.3,39.7,29.81,West,270,9.0,17.0,62,0.00,,,0.08,meteohub,2013-10-17 20:06:00,
2013-10-17 15:11:00,52.0,38.5,29.81,NW,315,7.0,13.0,60,0.00,,,0.08,meteohub,2013-10-17 20:11:00,
2013-10-17 15:16:00,51.8,38.8,29.81,NW,315,9.0,11.0,61,0.00,,,0.08,meteohub,2013-10-17 20:16:00,
2013-10-17 15:21:00,52.3,38.8,29.81,West,270,11.0,11.0,60,0.00,,,0.08,meteohub,2013-10-17 20:21:00,
2013-10-17 15:26:00,53.8,39.7,29.81,West,270,10.0,14.0,59,0.00,,,0.08,meteohub,2013-10-17 20:26:00,
2013-10-17 15:31:00,54.1,39.7,29.80,WSW,248,8.0,14.0,58,0.00,,,0.08,meteohub,2013-10-17 20:31:00,
2013-10-17 15:37:00,54.0,39.9,29.80,West,270,6.0,13.0,59,0.00,,,0.08,meteohub,2013-10-17 20:37:00,
2013-10-17 15:42:00,54.3,39.9,29.80,SW,225,9.0,13.0,58,0.00,,,0.08,meteohub,2013-10-17 20:42:00,
2013-10-17 15:47:00,53.4,39.4,29.80,West,270,5.0,13.0,59,0.00,,,0.08,meteohub,2013-10-17 20:47:00,
2013-10-17 15:52:00,52.7,37.9,29.80,SW,225,10.0,11.0,57,0.00,,,0.08,meteohub,2013-10-17 20:52:00,
2013-10-17 15:57:00,52.2,38.7,29.81,West,270,8.0,11.0,60,0.00,,,0.08,meteohub,2013-10-17 20:57:00,
2013-10-17 16:02:00,52.3,38.5,29.80,NW,315,6.0,11.0,59,0.00,,,0.08,meteohub,2013-10-17 21:02:00,
2013-10-17 16:07:00,52.3,38.5,29.80,NW,315,6.0,11.0,59,0.00,,,0.08,meteohub,2013-10-17 21:07:00,
2013-10-17 16:12:00,54.0,39.0,29.80,West,270,8.0,10.0,57,0.00,,,0.08,meteohub,2013-10-17 21:12:00,
2013-10-17 16:17:00,54.7,38.8,29.80,West,270,11.0,11.0,55,0.00,,,0.08,meteohub,2013-10-17 21:17:00,
2013-10-17 16:22:00,54.9,39.0,29.80,West,270,8.0,11.0,55,0.00,,,0.08,meteohub,2013-10-17 21:22:00,
2013-10-17 16:27:00,54.9,39.0,29.80,West,270,10.0,11.0,55,0.00,,,0.08,meteohub,2013-10-17 21:27:00,
2013-10-17 16:32:00,54.9,38.1,29.80,SW,225,11.0,11.0,53,0.00,,,0.08,meteohub,2013-10-17 21:32:00,
2013-10-17 16:37:00,53.8,37.6,29.80,West,270,14.0,15.0,54,0.00,,,0.08,meteohub,2013-10-17 21:37:00,
2013-10-17 16:42:00,53.4,37.6,29.81,NW,315,11.0,15.0,55,0.00,,,0.08,meteohub,2013-10-17 21:42:00,
2013-10-17 16:47:00,53.6,38.3,29.80,SW,225,11.0,15.0,56,0.00,,,0.08,meteohub,2013-10-17 21:47:00,
2013-10-17 16:52:00,52.9,38.1,29.81,West,270,10.0,14.0,57,0.00,,,0.08,meteohub,2013-10-17 21:52:00,
2013-10-17 16:57:00,52.7,38.3,29.81,West,270,6.0,11.0,58,0.00,,,0.08,meteohub,2013-10-17 21:57:00,
2013-10-17 17:02:00,52.9,39.0,29.81,West,270,4.0,11.0,59,0.00,,,0.08,meteohub,2013-10-17 22:02:00,
2013-10-17 17:07:00,52.9,39.0,29.81,West,270,4.0,11.0,59,0.00,,,0.08,meteohub,2013-10-17 22:07:00,
2013-10-17 17:12:00,52.2,38.3,29.81,West,270,6.0,9.0,59,0.00,,,0.08,meteohub,2013-10-17 22:12:00,
2013-10-17 17:17:00,51.8,38.3,29.81,West,270,5.0,8.0,60,0.00,,,0.08,meteohub,2013-10-17 22:17:00,
2013-10-17 17:22:00,51.3,37.8,29.81,West,270,4.0,8.0,60,0.00,,,0.08,meteohub,2013-10-17 22:22:00,
2013-10-17 17:27:00,51.1,38.1,29.81,West,270,4.0,8.0,61,0.00,,,0.08,meteohub,2013-10-17 22:27:00,
2013-10-17 17:32:00,51.1,38.1,29.81,West,270,4.0,6.0,61,0.00,,,0.08,meteohub,2013-10-17 22:32:00,
2013-10-17 17:37:00,50.9,38.3,29.81,WSW,248,5.0,5.0,62,0.00,,,0.08,meteohub,2013-10-17 22:37:00,
2013-10-17 17:42:00,50.9,38.3,29.81,West,270,8.0,8.0,62,0.00,,,0.08,meteohub,2013-10-17 22:42:00,
2013-10-17 17:47:00,50.9,37.9,29.81,WSW,248,6.0,8.0,61,0.00,,,0.08,meteohub,2013-10-17 22:47:00,
2013-10-17 17:52:00,50.9,38.3,29.81,West,270,6.0,8.0,62,0.00,,,0.08,meteohub,2013-10-17 22:52:00,
2013-10-17 17:57:00,50.9,38.8,29.81,SW,225,5.0,8.0,63,0.00,,,0.08,meteohub,2013-10-17 22:57:00,
2013-10-17 18:02:00,50.7,38.7,29.81,West,270,4.0,8.0,63,0.00,,,0.08,meteohub,2013-10-17 23:02:00,
2013-10-17 18:07:00,50.7,38.7,29.81,West,270,4.0,7.0,63,0.00,,,0.08,meteohub,2013-10-17 23:07:00,
2013-10-17 18:12:00,50.4,38.3,29.81,West,270,4.0,5.0,63,0.00,,,0.08,meteohub,2013-10-17 23:12:00,
2013-10-17 18:17:00,50.0,38.3,29.82,SW,225,4.0,5.0,64,0.00,,,0.08,meteohub,2013-10-17 23:17:00,
2013-10-17 18:22:00,49.8,38.5,29.82,West,270,4.0,5.0,65,0.00,,,0.08,meteohub,2013-10-17 23:22:00,
2013-10-17 18:27:00,49.5,38.7,29.82,West,270,4.0,5.0,66,0.00,,,0.08,meteohub,2013-10-17 23:27:00,
2013-10-17 18:32:00,48.9,38.5,29.82,SW,225,5.0,5.0,67,0.00,,,0.08,meteohub,2013-10-17 23:32:00,
2013-10-17 18:37:00,48.6,38.5,29.82,West,270,4.0,5.0,68,0.00,,,0.08,meteohub,2013-10-17 23:37:00,
2013-10-17 18:42:00,48.0,37.9,29.82,West,270,4.0,5.0,68,0.00,,,0.08,meteohub,2013-10-17 23:42:00,
2013-10-17 18:47:00,48.2,38.5,29.83,West,270,4.0,5.0,69,0.00,,,0.08,meteohub,2013-10-17 23:47:00,
2013-10-17 18:52:00,48.0,38.3,29.82,West,270,4.0,5.0,69,0.00,,,0.08,meteohub,2013-10-17 23:52:00,
2013-10-17 18:57:00,47.7,37.9,29.83,SW,225,4.0,5.0,69,0.00,,,0.08,meteohub,2013-10-17 23:57:00,
2013-10-17 19:02:00,47.7,37.9,29.83,West,270,3.0,4.0,69,0.00,,,0.08,meteohub,2013-10-18 00:02:00,
2013-10-17 19:07:00,47.7,37.9,29.83,West,270,3.0,4.0,69,0.00,,,0.08,meteohub,2013-10-18 00:07:00,
2013-10-17 19:12:00,47.5,38.1,29.83,West,270,4.0,4.0,70,0.00,,,0.08,meteohub,2013-10-18 00:12:00,
2013-10-17 19:17:00,47.3,37.9,29.83,West,270,4.0,4.0,70,0.00,,,0.08,meteohub,2013-10-18 00:17:00,
2013-10-17 19:22:00,47.1,38.1,29.83,SW,225,4.0,4.0,71,0.00,,,0.08,meteohub,2013-10-18 00:22:00,
2013-10-17 19:27:00,46.8,37.9,29.83,West,270,4.0,4.0,71,0.00,,,0.08,meteohub,2013-10-18 00:27:00,
2013-10-17 19:32:00,48.9,39.9,29.83,West,270,4.0,4.0,71,0.00,,,0.08,meteohub,2013-10-18 00:32:00,
2013-10-17 19:37:00,46.9,38.1,29.83,NW,315,4.0,4.0,71,0.00,,,0.08,meteohub,2013-10-18 00:37:00,
2013-10-17 19:42:00,46.9,38.1,29.83,SW,225,3.0,4.0,71,0.00,,,0.08,meteohub,2013-10-18 00:42:00,
2013-10-17 19:47:00,46.9,38.1,29.83,West,270,4.0,4.0,71,0.00,,,0.08,meteohub,2013-10-18 00:47:00,
2013-10-17 19:52:00,46.9,38.1,29.82,SW,225,4.0,4.0,71,0.00,,,0.08,meteohub,2013-10-18 00:52:00,
2013-10-17 19:57:00,46.8,37.9,29.82,West,270,4.0,4.0,71,0.00,,,0.08,meteohub,2013-10-18 00:57:00,
2013-10-17 20:02:00,46.9,38.1,29.82,West,270,4.0,4.0,71,0.00,,,0.08,meteohub,2013-10-18 01:02:00,
2013-10-17 20:07:00,46.9,38.1,29.83,West,270,4.0,4.0,71,0.00,,,0.08,meteohub,2013-10-18 01:07:00,
2013-10-17 20:12:00,46.8,37.6,29.82,SW,225,4.0,4.0,70,0.00,,,0.08,meteohub,2013-10-18 01:12:00,
2013-10-17 20:17:00,46.4,37.6,29.82,WSW,248,3.0,4.0,71,0.00,,,0.08,meteohub,2013-10-18 01:17:00,
2013-10-17 20:22:00,46.0,37.2,29.82,West,270,3.0,4.0,71,0.00,,,0.08,meteohub,2013-10-18 01:22:00,
2013-10-17 20:27:00,45.9,37.0,29.82,West,270,2.0,4.0,71,0.00,,,0.08,meteohub,2013-10-18 01:27:00,
2013-10-17 20:32:00,46.0,37.6,29.83,SW,225,4.0,4.0,72,0.00,,,0.08,meteohub,2013-10-18 01:32:00,
2013-10-17 20:37:00,46.0,37.6,29.82,West,270,4.0,4.0,72,0.00,,,0.08,meteohub,2013-10-18 01:37:00,
2013-10-17 20:42:00,45.9,37.4,29.82,West,270,3.0,4.0,72,0.00,,,0.08,meteohub,2013-10-18 01:42:00,
2013-10-17 20:47:00,45.9,37.4,29.83,West,270,4.0,4.0,72,0.00,,,0.08,meteohub,2013-10-18 01:47:00,
2013-10-17 20:52:00,45.7,37.2,29.82,West,270,4.0,4.0,72,0.00,,,0.08,meteohub,2013-10-18 01:52:00,
2013-10-17 20:57:00,45.7,37.2,29.82,West,270,4.0,4.0,72,0.00,,,0.08,meteohub,2013-10-18 01:57:00,
2013-10-17 21:02:00,45.7,37.2,29.82,West,270,4.0,4.0,72,0.00,,,0.08,meteohub,2013-10-18 02:02:00,
2013-10-17 21:07:00,45.7,37.2,29.82,West,270,4.0,4.0,72,0.00,,,0.08,meteohub,2013-10-18 02:07:00,
2013-10-17 21:12:00,45.7,36.9,29.82,West,270,4.0,4.0,71,0.00,,,0.08,meteohub,2013-10-18 02:12:00,
2013-10-17 21:17:00,45.7,36.9,29.82,West,270,4.0,4.0,71,0.00,,,0.08,meteohub,2013-10-18 02:17:00,
2013-10-17 21:22:00,45.5,36.7,29.82,West,270,3.0,4.0,71,0.00,,,0.08,meteohub,2013-10-18 02:22:00,
2013-10-17 21:27:00,45.0,36.1,29.82,SW,225,3.0,4.0,71,0.00,,,0.08,meteohub,2013-10-18 02:27:00,
2013-10-17 21:32:00,45.1,36.7,29.82,WSW,248,4.0,4.0,72,0.00,,,0.08,meteohub,2013-10-18 02:32:00,
2013-10-17 21:37:00,45.0,36.9,29.82,West,270,3.0,4.0,73,0.00,,,0.08,meteohub,2013-10-18 02:37:00,
2013-10-17 21:42:00,45.0,36.9,29.82,SW,225,4.0,4.0,73,0.00,,,0.08,meteohub,2013-10-18 02:42:00,
2013-10-17 21:47:00,44.8,36.7,29.82,West,270,4.0,4.0,73,0.00,,,0.08,meteohub,2013-10-18 02:47:00,
2013-10-17 21:52:00,44.8,37.0,29.82,West,270,4.0,4.0,74,0.00,,,0.08,meteohub,2013-10-18 02:52:00,
2013-10-17 21:57:00,44.6,36.9,29.82,West,270,4.0,4.0,74,0.00,,,0.08,meteohub,2013-10-18 02:57:00,
2013-10-17 22:02:00,44.4,36.7,29.82,West,270,4.0,4.0,74,0.00,,,0.08,meteohub,2013-10-18 03:02:00,
2013-10-17 22:07:00,44.4,36.7,29.82,West,270,4.0,4.0,74,0.00,,,0.08,meteohub,2013-10-18 03:07:00,
2013-10-17 22:12:00,44.1,36.3,29.82,West,270,4.0,4.0,74,0.00,,,0.08,meteohub,2013-10-18 03:12:00,
2013-10-17 22:17:00,44.2,36.5,29.82,West,270,4.0,4.0,74,0.00,,,0.08,meteohub,2013-10-18 03:17:00,
2013-10-17 22:22:00,44.1,36.3,29.82,West,270,4.0,4.0,74,0.00,,,0.08,meteohub,2013-10-18 03:22:00,
2013-10-17 22:27:00,44.2,36.5,29.82,West,270,4.0,4.0,74,0.00,,,0.08,meteohub,2013-10-18 03:27:00,
2013-10-17 22:32:00,44.2,36.5,29.82,West,270,4.0,4.0,74,0.00,,,0.08,meteohub,2013-10-18 03:32:00,
2013-10-17 22:37:00,44.1,36.3,29.82,West,270,4.0,4.0,74,0.00,,,0.08,meteohub,2013-10-18 03:37:00,
2013-10-17 22:42:00,43.9,36.1,29.81,West,270,4.0,4.0,74,0.00,,,0.08,meteohub,2013-10-18 03:42:00,
2013-10-17 22:47:00,43.7,36.0,29.82,West,270,4.0,4.0,74,0.00,,,0.08,meteohub,2013-10-18 03:47:00,
2013-10-17 22:52:00,43.7,36.3,29.82,WNW,293,4.0,4.0,75,0.00,,,0.08,meteohub,2013-10-18 03:52:00,
2013-10-17 22:57:00,43.5,36.1,29.81,West,270,4.0,4.0,75,0.00,,,0.08,meteohub,2013-10-18 03:57:00,
2013-10-17 23:01:00,43.3,36.0,29.81,West,270,5.0,5.0,75,0.00,,,0.08,meteohub,2013-10-18 04:01:00,
2013-10-17 23:02:00,43.3,36.0,29.81,West,270,5.0,5.0,75,0.00,,,0.08,meteohub,2013-10-18 04:02:00,
2013-10-17 23:04:00,43.3,36.0,29.81,West,270,5.0,5.0,75,0.00,,,0.08,meteohub,2013-10-18 04:04:00,
2013-10-17 23:09:00,43.3,36.0,29.81,West,270,4.0,5.0,75,0.00,,,0.08,meteohub,2013-10-18 04:09:00,
2013-10-17 23:14:00,43.3,36.3,29.81,West,270,4.0,5.0,76,0.00,,,0.08,meteohub,2013-10-18 04:14:00,
2013-10-17 23:19:00,43.3,36.3,29.81,West,270,5.0,5.0,76,0.00,,,0.08,meteohub,2013-10-18 04:19:00,
2013-10-17 23:24:00,43.2,36.1,29.81,North,0,5.0,6.0,76,0.00,,,0.08,meteohub,2013-10-18 04:24:00,
2013-10-17 23:30:00,43.2,36.1,29.81,West,270,5.0,6.0,76,0.00,,,0.08,meteohub,2013-10-18 04:30:00,
2013-10-17 23:35:00,43.2,36.1,29.81,West,270,5.0,6.0,76,0.00,,,0.08,meteohub,2013-10-18 04:35:00,
2013-10-17 23:40:00,43.2,36.1,29.82,SW,225,4.0,6.0,76,0.00,,,0.08,meteohub,2013-10-18 04:40:00,
2013-10-17 23:45:00,43.2,36.1,29.81,West,270,5.0,6.0,76,0.00,,,0.08,meteohub,2013-10-18 04:45:00,
2013-10-17 23:50:00,43.0,36.0,29.81,West,270,4.0,5.0,76,0.00,,,0.08,meteohub,2013-10-18 04:50:00,
2013-10-17 23:55:00,43.0,36.0,29.81,West,270,4.0,5.0,76,0.00,,,0.08,meteohub,2013-10-18 04:55:00,